www.enaktoto.com

Jackpot

Texas Poker Multi Jackpot System

Kini Telah hadir Jackpot SUPER ROYAL FLUSH

Kini Telah hadir Jackpot 2000 (khusus table VIP keatas).

Ikutilah global jackpot yang tersedia di system kami, dengan system jackpot terbaru dan pertama di indonesia, anda dapat membeli jackpot dengan harga 100 rupiah saja dan menangkan hadiahnya hingga puluhan juta rupiah.

Jackpot bukanlah suatu keharusan untuk dibeli, namun kami memberikan suatu fitur tambahan untuk member tercinta dari www.pokermbs.net.

Terdapat tiga pilihan harga jackpot yang bisa anda beli yaitu :100,500,1000 dan 2000(khusus table VIP Keatas) rupiah.

Hadiah dari Multi jackpot system www.pokermbs.net

  1. full house x 10 harga jackpot yang anda beli.
      (contoh:anda membeli 1000 maka:1000 X10 = 10.000)
  2. four of kind x 250 harga jackpot yang anda beli
      (contoh:anda membeli 1000 maka:1000 X250 = 250.000)
  3. Straight flush x 1200
      (contoh:anda membeli 1000 maka:1000 X1200 = 1.200.000)
  4. Royal flush x 10000 harga jackpot yang anda beli
      (contoh:anda membeli 1000 maka:1000 X10000 = 10.000.000)
  5. SUPER ROYAL FLUSH x 30000 harga jackpot yang anda beli
      (contoh:anda membeli 1000 maka:1000 X30000 = 30.000.000)

Kondisi kartu

  1. full house adalah kondisi kartu dimana kartu anda dan kartu tengah dengan total 7 kartu bisa mendapatkan nilai 5 kartu dengan kombinasi 1 tris(three of kind) dan 1 pair, contoh 3 kartu 10 dan 2 kartu 5
  2. Four of kind adalah kondisi kartu dimana kartu anda dan kartu tengah dengan total 7 kartu bisa mendapatkan nilai 5 kartu dengan kombinasi 4 kartu yang sama jumlah dan 1 kartu apapun juga contoh anda mendapatkan 4 buah kartu angka 3 dan 1 kartu apapun.
  3. Staright flush adalah kondisi kartu dimana kartu anda dan kartu tengah dengan total 7 kartu bisa mendapatkan nilai 5 kartu dengan kombinasi seri / staright dengan kembang yang sama contoh : urutan kartu dari angka 5, 6, 7, 8 , 9 10 dengan kembang yg sama misalnya as hati
  4. Royal flush adalah kondisi kartu dimana kartu anda dan kartu tengah dengan total 7 kartu bisa mendapatkan nilai 5 kartu dengan kombinasi seri / staright dengan kembang yang sama tetapi kartu tersebut haruslah dimulai dari 10. contoh 10, Queen, Jack, King dan aces dengan kembang yang sama
  5. Super Royal flush adalah kondisi kartu dimana Kedua kartu anda digabung dengan 3 kartu pertama meja haruslah royal flush. contoh kartu anda 10,Queen kembang sama dan 3 kartu pertama meja adalah Jack, King dan aces dengan kembang yang sama

Demikian adalah penjelasan dari Multi Jackpot www.pokermbs.net terima kasih dan selamat bermain salam hoki dari kami

Texas Poker Jackpot Winner

TOP SUPER ROYAL FLUSH
No.TanggalNamaPriceWin
125/09 05:30B365CA9ASuper Royal flush6,000,000
225/09 00:17N0AH16Super Royal flush3,000,000
324/09 23:12SAF99Super Royal flush1,500,000
424/09 16:34OPPOF9Super Royal flush30,000,000
524/09 14:33ALL19Super Royal flush6,000,000
TOP ROYAL FLUSH
No.TanggalNamaPriceWin
125/09 08:09TATAA2000Royal flush2,000,000
225/09 07:23EXA98Royal flush2,000,000
325/09 07:21TIRTA678Royal flush1,000,000
425/09 07:18GUN69Royal flush5,000,000
525/09 06:41YANIIIII11Royal flush5,000,000
TOP STRAIGHT FLUSH
No.TanggalNamaPriceWin
125/09 08:10EC2CCB8CStraight Flush2,400,000
225/09 08:10ADZKIA19Straight Flush1,200,000
325/09 08:09HAD1RKAN44Straight Flush240,000
425/09 08:08ANGGARA212Straight Flush1,200,000
525/09 07:52EC2CCB8CStraight Flush2,400,000
LATEST JACKPOT
No.TanggalNamaPriceWin
125/09 08:17BAPAMOAFull House2,000
225/09 08:17CHALSE22Full House5,000
325/09 08:17HELDAWATY7Full House5,000
425/09 08:17CAHAYA18Full House1,000
525/09 08:17VIANSUKASAFull House1,000
625/09 08:17EMB3B01Full House10,000
725/09 08:17IZ95125Full House5,000
825/09 08:17F4YOLA33Four Of A Kind125,000
925/09 08:17SIMOLU99Full House5,000
1025/09 08:17T4DAMBALLE77Full House10,000
1125/09 08:17LONELY114Full House20,000
1225/09 08:17JUNXBIGFull House20,000
1325/09 08:17SETTT_02Full House2,000
1425/09 08:17IDK893655Full House5,000
1525/09 08:17BODAT1710Full House10,000
1625/09 08:16RIMELGAFull House10,000
1725/09 08:16P3HWWLA7HIFull House5,000
1825/09 08:16SUSANA777Four Of A Kind125,000
1925/09 08:16CD012425Full House5,000
2025/09 08:16TAIP123Full House2,000
2125/09 08:16ASMADIIIIIFour Of A Kind50,000
2225/09 08:16DARTO15Full House5,000
2325/09 08:16ANDYFAQIHFull House1,000
2425/09 08:16KIRIIKFull House5,000
2525/09 08:16TAIASU1234Full House2,000
2625/09 08:16PAWANG11Full House5,000
2725/09 08:16IDNGDOLI22Full House5,000
2825/09 08:16B46999430Full House5,000
2925/09 08:16F2224404Full House2,000
3025/09 08:16INDRO4J1PFull House2,000
3125/09 08:16ZO04IIXVZEFull House5,000
3225/09 08:16TIMONEYFour Of A Kind125,000
3325/09 08:16SHENS3888Full House1,000
3425/09 08:16CAHAYA18Full House1,000
3525/09 08:16EMPIREIPLFull House500
3625/09 08:16LINGGA89Full House2,000
3725/09 08:16JETTFull House500
3825/09 08:16WINER111Full House5,000
3925/09 08:16ERYK12Full House2,000
4025/09 08:1646ROSSIFull House10,000
4125/09 08:16BALAREAFull House5,000
4225/09 08:16BAJIND0LFull House2,000
4325/09 08:16PAPI13Full House20,000
4425/09 08:16C961982647Full House5,000
4525/09 08:16KASMONO14Full House10,000
4625/09 08:16DAV1DMOY3SFull House5,000
4725/09 08:16HAWKINS24Full House10,000
4825/09 08:16HOME88315Full House2,000
4925/09 08:16BORKATJP9Four Of A Kind250,000
5025/09 08:16GR3G4545Full House2,000

Domino Multi Jackpot System

Ikutilah global jackpot yang tersedia di system kami, dengan system jackpot terbaru dan pertama di indonesia, anda dapat membeli jackpot dengan harga 100 rupiah saja dan menangkan hadiahnya hingga puluhan juta rupiah.

Jackpot bukanlah suatu keharusan untuk dibeli, namun kami memberikan suatu fitur tambahan untuk member tercinta dari www.pokermbs.net.

Terdapat tiga pilihan harga jackpot yang bisa anda beli yaitu :100,500 dan 1000 rupiah.

Hadiah dari Multi jackpot system www.pokermbs.net

  1. Murni Kecil x 50 harga jackpot yang anda beli.
      (contoh:anda membeli 1000 maka:1000 X 50 = 50.000)
  2. Murni Besar x 50 harga jackpot yang anda beli
      (contoh:anda membeli 1000 maka:1000 X 50 = 50.000)
  3. BALAK x 100 harga jackpot yang anda beli
      (contoh:anda membeli 1000 maka:1000 X 100 = 100.000)
  4. ENAM DEWA x 6666 harga jackpot yang anda beli
      (contoh:anda membeli 1000 maka:1000 X 6666 = 6.666.000)

Demikian adalah penjelasan dari Multi Jackpot www.pokermbs.net terima kasih dan selamat bermain salam hoki dari kami

Domino Jackpot Winner

TOP ENAM DEWA
No.TanggalNamaPriceWin
125/09 07:33REJEKIUYEmurni enam6,666,000
225/09 07:28B55EK757murni enam666,600
325/09 06:42ATIKmurni enam666,600
425/09 03:00TEMPUYAK90murni enam3,333,000
525/09 02:56MULLAHmurni enam3,333,000
TOP BALAK
No.TanggalNamaPriceWin
125/09 08:14ALICETANIAbalak100,000
225/09 08:06ERIKPRASbalak100,000
325/09 08:06DJAMBRETbalak100,000
425/09 08:05B4J4KLAUT9balak100,000
525/09 08:01KN0310010balak100,000
LATEST JACKPOT
No.TanggalNamaPriceWin
125/09 08:17A6F92CD7murni besar50,000
225/09 08:15AJS77murni kecil25,000
325/09 08:14ALICETANIAbalak100,000
425/09 08:13THEFLASTERmurni kecil50,000
525/09 08:13ITILGACENGmurni kecil5,000
625/09 08:13CEMPLUNDmurni besar50,000
725/09 08:12XTREAM_89murni kecil25,000
825/09 08:12IUPEmurni kecil50,000
925/09 08:11YOGURT99murni besar50,000
1025/09 08:11TEA_89murni kecil5,000
1125/09 08:11HANALAM_99murni besar50,000
1225/09 08:08B55EK757murni kecil25,000
1325/09 08:07A70N07884murni besar5,000
1425/09 08:06ERIKPRASbalak100,000
1525/09 08:06DJAMBRETbalak100,000
1625/09 08:05B4J4KLAUT9balak100,000
1725/09 08:05YKB881546murni besar25,000
1825/09 08:05ARWA666murni besar5,000
1925/09 08:02NASRUDIN86murni kecil50,000
2025/09 08:02KAKACOOLmurni besar50,000
2125/09 08:02HOLAN8585murni kecil25,000
2225/09 08:02AKI60AJ4Smurni besar25,000
2325/09 08:01UPNORMAL98murni kecil50,000
2425/09 08:01KN0310010balak100,000
2525/09 08:00ABON09murni besar25,000
2625/09 08:00PAULE36murni kecil50,000
2725/09 07:59KORAMILlucky9910,000
2825/09 07:57ASEP334murni besar50,000
2925/09 07:55RAMASPMmurni besar5,000
3025/09 07:55BEBYHOKYmurni besar5,000
3125/09 07:55MAC0C1EHmurni besar25,000
3225/09 07:53IUPEmurni besar50,000
3325/09 07:52KOPIRACUNmurni besar50,000
3425/09 07:51CEMPLUNDmurni kecil50,000
3525/09 07:51IMELDA8888murni besar5,000
3625/09 07:50NASRUDIN86murni besar50,000
3725/09 07:50KOPIRACUNbalak100,000
3825/09 07:49JUMANG88murni kecil50,000
3925/09 07:47IRWANASGmurni kecil50,000
4025/09 07:46SKUD_99balak10,000
4125/09 07:46DUNIAQQmurni kecil5,000
4225/09 07:46WINNERSAJAmurni kecil25,000
4325/09 07:44KALVENOlucky9950,000
4425/09 07:44ERIKPRASlucky9910,000
4525/09 07:43A70N07884balak10,000
4625/09 07:42MAMUN74murni kecil50,000
4725/09 07:42KEMPUL87murni kecil5,000
4825/09 07:42THOBEDA11murni kecil25,000
4925/09 07:42SKUD_99murni kecil5,000
5025/09 07:40REJEKIUYEmurni kecil50,000

Ceme Multi Jackpot System

Jackpot dilihat dari gabungan kartu pemain dengan kartu bandar. Bandar harus membeli jackpot sebanyak jumlah player yang sedang duduk. Sebagai contoh bila terdapat 3 pemain duduk bermain, dan bandar memutuskan untuk membeli jackpot Rp 1.000, maka pada periode tersebut bandar akan membeli jackpot sebanyak 3xRp1.000 = Rp3.000.

Jackpot bukanlah suatu keharusan untuk dibeli, namun kami memberikan suatu fitur tambahan untuk member tercinta dari www.pokermbs.net.

Terdapat tiga pilihan harga jackpot yang bisa anda beli yaitu :100,500 dan 1000 rupiah.

Hadiah dari Multi jackpot system www.pokermbs.net

  1. Murni Kecil x 50 harga jackpot yang anda beli.
      (contoh:anda membeli 1000 maka:1000 X 50 = 50.000)
  2. Murni Besar x 50 harga jackpot yang anda beli
      (contoh:anda membeli 1000 maka:1000 X 50 = 50.000)
  3. BALAK x 200 harga jackpot yang anda beli
      (contoh:anda membeli 1000 maka:1000 X 200 = 200.000)
  4. ENAM DEWA x 6666 harga jackpot yang anda beli
      (contoh:anda membeli 1000 maka:1000 X 6666 = 6.666.000)

Demikian adalah penjelasan dari Multi Jackpot www.pokermbs.net terima kasih dan selamat bermain salam hoki dari kami

Ceme Jackpot Winner

TOP ENAM DEWA
No.TanggalNamaPriceWin
125/09 07:29WIJAYAKUmurni enam3,333,000
225/09 07:29RANIFATIHmurni enam666,600
325/09 07:22AZZULOVAmurni enam6,666,000
425/09 07:20GOCRING11murni enam6,666,000
525/09 06:47YOIBROW89murni enam6,666,000
TOP BALAK
No.TanggalNamaPriceWin
125/09 08:16AFLY11balak20,000
225/09 08:16TUPAY05balak200,000
325/09 08:16NA94XXXbalak100,000
425/09 08:15TDC32balak200,000
525/09 08:15MOSI1212balak200,000
LATEST JACKPOT
No.TanggalNamaPriceWin
125/09 08:17GABUZmurni kecil50,000
225/09 08:16WIDAY206murni kecil50,000
325/09 08:16CHOKY02murni kecil5,000
425/09 08:16SIBOECEmurni besar50,000
525/09 08:16E91_VIPmurni besar50,000
625/09 08:16UNCUANmurni besar25,000
725/09 08:16KAROM2murni besar50,000
825/09 08:16AFLY11balak20,000
925/09 08:16DEDENHOKI5murni kecil50,000
1025/09 08:16ANTORS666murni kecil50,000
1125/09 08:16DITA187murni kecil50,000
1225/09 08:16P3KR37GE4Jmurni kecil5,000
1325/09 08:16TUPAY05balak200,000
1425/09 08:16NA94XXXbalak100,000
1525/09 08:15TDC32balak200,000
1625/09 08:15DJISAMSOEmurni kecil50,000
1725/09 08:15SWARA16murni kecil50,000
1825/09 08:15JANGGAR30murni kecil50,000
1925/09 08:15MOSI1212balak200,000
2025/09 08:15GAMING_murni besar50,000
2125/09 08:15ALFYEPAmurni besar25,000
2225/09 08:15E91_VIPmurni besar50,000
2325/09 08:15E91_VIPmurni besar50,000
2425/09 08:15FAHRIZA19murni besar5,000
2525/09 08:15RYANSmurni kecil5,000
2625/09 08:15KZYHmurni kecil50,000
2725/09 08:15KOPLERRR08murni besar50,000
2825/09 08:15GOTIK25murni besar50,000
2925/09 08:14BUDAIRImurni kecil50,000
3025/09 08:14BINTANK98murni kecil5,000
3125/09 08:14A96INBANDAR99murni besar25,000
3225/09 08:14DWBTAJAA86murni besar50,000
3325/09 08:14ERMA88murni besar50,000
3425/09 08:14BERKAT786murni kecil50,000
3525/09 08:14TWB89murni besar50,000
3625/09 08:14MARGANDOELmurni besar50,000
3725/09 08:14AIT88murni besar5,000
3825/09 08:14JAER15murni kecil50,000
3925/09 08:13ERNES69murni besar25,000
4025/09 08:13DC_QWEENmurni besar50,000
4125/09 08:13BUYUANG55murni besar50,000
4225/09 08:13RAYA8142murni besar5,000
4325/09 08:13BE4815CKbalak200,000
4425/09 08:13NEKA71balak100,000
4525/09 08:13DWBTLEK16murni kecil50,000
4625/09 08:13SUBAEDImurni besar5,000
4725/09 08:13AIT88murni besar5,000
4825/09 08:12DEDENHOKI5murni kecil50,000
4925/09 08:12WDY99murni kecil50,000
5025/09 08:12PAKBEEKBRObalak200,000